TimeEDT,TemperatureF,Dew PointF,Humidity,Sea Level PressureIn,VisibilityMPH,Wind Direction,Wind SpeedMPH,Gust SpeedMPH,PrecipitationIn,Events,Conditions,WindDirDegrees,DateUTC
12:53 AM,53.1,44.1,71,29.92,10.0,Variable,3.5,-,N/A,,Clear,0,2012-09-30 04:53:00
1:53 AM,50.0,44.1,80,29.91,10.0,Calm,Calm,-,N/A,,Clear,0,2012-09-30 05:53:00
2:53 AM,51.1,44.1,77,29.91,10.0,NNE,3.5,-,N/A,,Clear,20,2012-09-30 06:53:00
3:53 AM,48.9,44.1,83,29.91,10.0,Calm,Calm,-,N/A,,Clear,0,2012-09-30 07:53:00
4:53 AM,48.0,44.1,86,29.90,10.0,North,3.5,-,N/A,,Clear,10,2012-09-30 08:53:00
5:53 AM,46.9,44.1,90,29.90,10.0,Calm,Calm,-,N/A,,Clear,0,2012-09-30 09:53:00
6:53 AM,45.0,43.0,93,29.91,10.0,NW,3.5,-,N/A,,Clear,320,2012-09-30 10:53:00
7:53 AM,44.1,42.1,93,29.92,7.0,NNE,5.8,-,N/A,,Clear,20,2012-09-30 11:53:00
8:53 AM,50.0,46.9,89,29.94,10.0,NNE,5.8,-,N/A,,Clear,20,2012-09-30 12:53:00
10:53 AM,59.0,48.9,69,29.96,10.0,North,10.4,18.4,N/A,,Partly Cloudy,10,2012-09-30 14:53:00
11:53 AM,61.0,46.0,58,29.96,10.0,ENE,10.4,-,N/A,,Scattered Clouds,60,2012-09-30 15:53:00
12:53 PM,62.1,46.0,56,29.96,10.0,North,9.2,20.7,N/A,,Mostly Cloudy,10,2012-09-30 16:53:00
1:53 PM,64.9,45.0,48,29.95,10.0,East,9.2,-,N/A,,Mostly Cloudy,80,2012-09-30 17:53:00
2:53 PM,64.9,43.0,45,29.94,10.0,Variable,4.6,-,N/A,,Mostly Cloudy,0,2012-09-30 18:53:00
4:53 PM,66.0,39.9,38,29.92,10.0,NE,9.2,-,N/A,,Clear,50,2012-09-30 20:53:00
5:53 PM,64.9,39.9,40,29.92,10.0,NE,9.2,-,N/A,,Clear,50,2012-09-30 21:53:00
6:53 PM,63.0,41.0,45,29.93,10.0,NNE,4.6,-,N/A,,Clear,20,2012-09-30 22:53:00
7:53 PM,55.0,43.0,64,29.94,10.0,Calm,Calm,-,N/A,,Clear,0,2012-09-30 23:53:00
8:53 PM,50.0,44.1,80,29.95,10.0,NE,4.6,-,N/A,,Clear,50,2012-10-01 00:53:00
9:53 PM,51.1,44.1,77,29.96,10.0,Calm,Calm,-,N/A,,Clear,0,2012-10-01 01:53:00
10:53 PM,48.0,44.1,86,29.97,10.0,Calm,Calm,-,N/A,,Clear,0,2012-10-01 02:53:00
11:53 PM,46.9,42.1,83,29.96,10.0,Calm,Calm,-,N/A,,Clear,0,2012-10-01 03:53:00